Wind_Speed
9 8 8 7 7 7 6 6 6 7 7 7 7 7 7 7 7 7 7 8 8 8 8 9 9 9 9 9 9 10 10 10 10 10 11 11 12 12 12 11 11 11 12
9 8 7 6 6 6 6 7 7 7 7 7 7 7 7 8 8 8 9 9 9 9 9 9 9 9 9 9 10 10 10 11 11 11 11 12 12 12 12 12 12 11 11
8 7 7 6 6 6 6 6 7 7 7 7 7 7 7 8 9 9 9 9 9 10 10 10 10 10 10 10 10 11 11 11 12 12 12 12 12 13 13 12 13 12 12
8 8 7 7 7 7 7 6 6 6 6 6 7 7 8 8 9 10 10 10 10 11 11 11 11 11 11 11 11 11 12 12 12 12 13 13 13 13 13 13 13 13 13
8 8 8 7 7 7 7 7 7 6 6 6 7 8 8 9 9 9 9 10 11 11 12 12 13 13 13 12 12 12 12 12 12 12 12 13 13 13 13 14 14 14 14
8 9 9 8 8 8 8 7 7 7 7 8 8 9 9 9 10 10 10 10 11 12 12 12 13 13 13 13 12 12 12 12 13 12 12 13 13 13 13 14 14 15 15
8 8 8 9 8 8 9 8 8 8 8 9 9 10 10 10 11 11 11 11 11 11 11 11 12 12 12 12 12 13 13 13 13 13 13 13 13 14 14 14 15 15 15
8 8 8 9 9 9 9 9 10 9 9 10 10 10 10 10 10 10 11 11 11 11 11 11 11 11 11 12 12 12 13 13 13 13 14 13 14 14 14 14 15 15 15
9 9 9 9 9 10 10 10 10 10 10 10 10 9 9 10 10 10 11 11 10 10 10 10 11 11 11 12 12 12 12 13 13 14 13 13 13 13 13 14 14 14 15
10 9 9 9 9 9 9 9 10 10 10 10 10 10 10 10 10 10 10 10 10 10 10 10 10 10 11 11 12 12 13 13 13 13 13 13 13 12 13 13 13 13 14
10 10 10 9 10 10 10 9 9 10 10 10 10 9 10 10 10 10 10 10 10 10 10 10 10 10 11 12 12 12 12 12 13 13 14 13 13 13 13 13 14 14 14
11 11 10 10 11 11 11 11 10 10 11 11 10 10 10 10 10 10 10 10 10 10 10 10 10 10 11 11 12 12 12 12 12 13 13 13 13 13 13 13 13 14 14
11 11 11 11 11 11 11 10 10 10 10 11 11 11 11 11 11 11 11 10 10 10 10 10 11 11 11 11 12 12 12 11 12 12 12 12 13 14 14 14 14 14 14
11 12 12 12 12 11 11 11 10 11 11 11 12 12 12 13 12 12 12 11 11 11 11 11 11 12 12 12 13 13 12 11 12 12 12 13 13 14 14 14 15 15 14
12 13 13 13 13 12 12 12 12 12 12 12 13 13 13 13 14 14 13 12 12 12 12 12 12 13 13 13 13 13 13 12 12 12 13 13 14 14 14 14 14 15 15
14 14 14 14 14 14 14 14 14 13 14 14 14 14 14 15 15 14 14 13 13 13 13 13 14 14 14 14 14 14 14 14 14 14 14 14 15 15 15 15 16 16 17
15 15 15 15 15 16 16 15 16 15 16 15 16 16 17 16 16 15 14 14 14 14 14 14 14 15 16 16 15 15 15 15 14 14 14 14 15 15 15 15 16 16 17
18 17 17 17 17 17 17 17 18 18 18 18 18 18 17 17 17 17 16 16 16 16 16 16 16 16 16 16 16 16 16 16 16 16 16 16 16 16 17 17 17 18 18
20 19 19 19 19 19 19 19 20 20 20 20 20 19 19 19 18 18 18 18 18 18 18 18 18 18 18 17 17 17 17 17 17 17 18 18 18 18 19 19 19 19 20
21 21 21 21 21 22 21 21 21 21 21 21 21 21 21 21 21 21 21 21 20 20 20 20 19 19 19 19 18 18 18 19 19 19 19 19 19 19 19 20 20 20 21
24 23 23 23 23 23 23 23 23 23 23 22 22 23 23 23 23 23 23 23 22 22 22 21 21 21 21 20 20 20 20 20 20 20 20 20 20 20 20 20 21 21 22
25 25 25 25 25 24 24 25 25 25 24 24 24 24 25 25 25 25 25 24 24 24 23 23 23 22 22 22 22 22 22 22 22 21 21 21 21 21 21 21 22 23 23
26 26 27 27 27 27 27 27 27 27 26 26 26 26 26 26 26 26 26 26 26 26 25 25 25 24 24 24 24 24 24 24 23 23 23 23 23 23 23 23 24 25 25
28 28 28 28 28 28 29 29 28 28 28 27 27 27 27 27 27 27 28 28 28 28 27 27 27 26 26 25 26 26 26 26 26 26 25 25 25 25 25 25 25 26 27
29 29 29 30 30 30 30 30 30 29 28 28 28 28 28 29 29 30 29 29 30 30 29 28 28 28 28 28 28 28 28 28 28 28 27 27 27 27 27 27 27 27 27
30 30 30 31 31 31 31 31 31 30 30 30 30 30 30 31 31 31 31 31 31 31 31 30 30 30 30 30 29 29 29 29 30 29 29 29 28 29 29 28 28 28 28
Wind_Direction
267 266 272 278 276 273 271 274 276 275 275 273 271 267 263 263 267 267 267 268 270 273 274 275 276 274 274 273 267 262 257 255 255 257 258 258 257 257 259 257 257 258 257
268 265 269 270 269 270 272 270 270 271 272 271 269 269 266 264 266 267 269 268 269 272 273 274 271 270 271 269 264 264 260 257 256 257 258 259 259 260 259 258 257 257 257
267 265 261 265 266 268 271 270 270 270 270 269 271 270 270 273 271 274 275 270 268 270 271 273 272 270 270 266 263 264 262 260 258 258 258 258 258 258 258 257 257 255 254
264 261 261 262 266 267 268 269 273 273 271 270 272 272 275 278 277 277 278 274 271 271 272 272 272 269 268 265 263 261 262 259 257 257 257 256 257 257 255 254 253 253 252
261 263 266 265 266 267 268 269 266 268 271 272 274 275 277 279 280 277 280 278 274 274 276 276 273 271 268 266 265 263 261 258 258 259 258 255 256 258 257 254 252 253 254
260 263 263 262 261 263 266 269 271 274 276 277 277 279 282 281 281 279 281 283 281 282 280 276 272 272 267 264 264 263 261 260 258 260 260 259 256 256 257 258 256 256 255
262 263 267 265 264 263 263 267 272 275 277 277 277 279 281 280 282 281 280 284 286 284 282 279 278 271 268 266 263 261 260 260 260 259 260 259 257 256 256 259 258 256 255
262 261 262 266 266 267 267 268 272 275 278 281 281 281 280 279 281 284 284 285 285 284 282 279 277 274 272 269 264 262 262 259 262 260 260 260 258 258 256 258 257 258 256
264 262 257 261 265 268 271 272 275 278 278 282 283 284 283 284 283 285 286 285 283 283 283 281 280 277 273 270 267 265 263 263 263 261 258 260 260 259 258 259 260 259 258
260 259 259 261 264 268 275 277 278 279 278 279 282 283 282 284 286 285 288 288 285 281 280 277 279 278 275 270 269 269 268 268 263 260 259 261 260 258 255 256 258 259 258
264 260 262 265 269 272 275 278 279 278 279 280 281 284 286 283 283 284 286 288 285 279 278 279 281 280 278 273 272 273 272 271 265 261 259 258 258 258 255 255 256 258 261
265 266 269 269 269 270 271 273 276 277 278 280 279 283 286 287 285 286 288 291 289 281 279 280 282 283 282 280 278 273 273 273 269 262 258 254 256 256 257 257 257 260 262
264 266 269 273 271 271 270 270 272 275 275 277 278 281 283 285 285 287 289 291 291 287 283 281 281 280 281 281 280 277 276 274 271 265 260 257 257 258 259 257 258 262 265
264 266 270 272 273 271 269 270 272 273 276 275 275 278 280 280 282 285 286 289 291 287 281 281 282 280 281 281 280 277 275 272 270 266 264 261 259 260 261 258 259 262 265
265 267 269 269 269 269 269 270 272 276 278 276 277 277 277 275 277 278 281 284 288 287 282 281 281 280 279 281 279 275 271 269 268 269 266 263 261 261 261 259 262 263 264
265 267 268 267 267 267 268 273 272 274 276 277 277 276 276 275 275 275 276 278 282 284 281 281 280 278 278 279 279 276 274 272 270 271 271 268 266 264 260 260 262 264 264
267 265 266 267 268 269 270 272 275 274 275 278 278 277 276 274 273 273 275 277 279 282 283 283 283 281 279 280 281 279 277 276 274 272 273 272 268 265 265 263 263 264 264
264 266 266 267 268 269 269 271 273 275 277 277 278 280 278 277 272 272 273 275 277 279 282 284 282 281 280 279 280 279 276 276 273 271 272 273 270 268 267 264 262 263 265
263 265 266 266 267 267 267 270 272 274 275 276 277 278 278 277 275 273 274 274 275 277 280 281 280 279 278 278 279 277 275 274 274 273 272 272 272 271 269 266 265 265 267
266 266 267 268 267 267 268 271 271 273 273 275 276 276 276 276 274 274 274 274 276 277 278 279 278 276 276 275 276 276 275 273 273 273 273 272 272 271 269 267 268 267 268
268 268 268 269 269 268 268 271 271 274 274 276 276 275 275 275 274 273 273 274 274 275 275 277 277 275 274 274 274 274 275 274 273 275 274 273 273 273 271 269 269 270 270
268 268 268 269 271 271 270 271 272 273 274 276 276 275 274 274 274 272 272 272 272 273 274 275 276 275 274 273 273 274 274 274 273 274 276 275 274 274 273 272 271 271 271
268 268 269 269 270 271 272 272 272 273 274 275 274 274 274 274 274 273 271 270 271 271 272 273 273 274 274 272 271 272 272 273 273 273 274 275 275 274 274 273 273 273 273
266 267 268 269 269 270 271 270 270 270 271 272 273 274 274 275 275 273 271 269 270 270 271 271 271 272 273 272 271 270 271 273 273 273 274 275 276 275 274 274 274 273 272
268 268 268 269 269 270 269 269 269 269 269 269 270 271 273 274 273 273 271 270 270 270 269 270 270 270 272 272 270 270 270 271 273 273 272 273 274 275 275 276 275 273 273
270 270 270 270 270 269 268 268 268 268 267 268 270 270 271 272 273 273 272 270 270 269 268 268 268 269 270 271 270 270 270 271 271 272 272 273 273 275 275 275 275 273 272
Height
5859 5859 5858 5858 5858 5858 5858 5858 5857 5857 5857 5857 5856 5856 5856 5856 5856 5855 5855 5855 5854 5854 5853 5853 5852 5852 5852 5851 5851 5851 5851 5851 5851 5851 5851 5851 5851 5851 5851 5851 5852 5852 5852
5857 5857 5857 5856 5856 5856 5856 5856 5856 5855 5855 5855 5855 5854 5854 5854 5854 5853 5853 5853 5852 5852 5851 5850 5850 5850 5849 5849 5849 5848 5848 5849 5849 5849 5849 5849 5849 5849 5849 5849 5849 5849 5850
5854 5854 5854 5854 5854 5854 5854 5854 5854 5854 5853 5853 5853 5852 5852 5852 5851 5851 5851 5850 5850 5849 5849 5848 5847 5847 5846 5846 5846 5846 5846 5845 5846 5846 5846 5846 5846 5846 5846 5846 5846 5847 5847
5851 5852 5852 5852 5852 5852 5852 5852 5852 5852 5851 5851 5851 5851 5850 5850 5849 5849 5848 5847 5847 5846 5846 5845 5844 5844 5843 5843 5843 5843 5843 5842 5842 5843 5843 5843 5843 5843 5843 5843 5844 5844 5844
5849 5849 5850 5850 5850 5850 5850 5850 5850 5850 5850 5850 5849 5849 5848 5847 5847 5846 5845 5845 5844 5843 5842 5842 5841 5840 5840 5839 5839 5839 5839 5839 5839 5839 5839 5839 5840 5840 5840 5840 5841 5841 5841
5846 5847 5847 5848 5848 5848 5848 5848 5848 5848 5848 5847 5847 5846 5846 5845 5844 5843 5843 5842 5841 5840 5839 5838 5837 5836 5836 5836 5836 5836 5836 5836 5836 5836 5836 5836 5836 5836 5837 5837 5837 5838 5838
5844 5844 5845 5845 5846 5846 5846 5846 5846 5846 5846 5845 5845 5844 5843 5842 5841 5841 5840 5839 5838 5836 5835 5834 5833 5833 5832 5832 5832 5832 5832 5832 5832 5832 5832 5832 5832 5833 5833 5834 5834 5834 5834
5842 5842 5843 5843 5843 5844 5844 5844 5844 5844 5843 5843 5842 5841 5841 5840 5839 5838 5837 5836 5835 5834 5833 5832 5831 5830 5829 5829 5828 5828 5829 5829 5829 5829 5829 5829 5829 5829 5830 5830 5830 5831 5831
5840 5840 5840 5841 5841 5841 5841 5841 5841 5841 5841 5840 5839 5839 5838 5837 5836 5835 5834 5833 5832 5831 5830 5829 5828 5827 5827 5826 5825 5825 5825 5825 5825 5825 5825 5825 5825 5825 5826 5826 5827 5827 5828
5837 5837 5838 5838 5838 5839 5839 5839 5839 5838 5838 5837 5837 5836 5835 5834 5834 5833 5832 5830 5829 5828 5828 5826 5825 5825 5824 5823 5823 5822 5821 5821 5821 5821 5820 5820 5821 5821 5822 5823 5823 5824 5824
5835 5835 5835 5835 5836 5836 5836 5836 5836 5835 5835 5835 5834 5833 5832 5831 5831 5830 5829 5828 5827 5826 5825 5824 5823 5822 5821 5820 5819 5818 5818 5817 5817 5816 5816 5816 5816 5817 5818 5819 5820 5820 5821
5833 5833 5833 5833 5833 5833 5833 5833 5833 5832 5832 5831 5831 5830 5830 5829 5828 5827 5826 5825 5824 5823 5822 5821 5820 5819 5818 5817 5816 5815 5815 5814 5813 5812 5811 5811 5813 5814 5815 5815 5816 5817 5817
5830 5830 5830 5830 5830 5830 5830 5830 5830 5830 5829 5829 5828 5827 5827 5826 5825 5825 5824 5823 5821 5820 5819 5818 5818 5817 5816 5815 5814 5813 5812 5811 5810 5809 5809 5809 5809 5810 5811 5812 5813 5813 5814
5828 5828 5828 5828 5828 5827 5827 5827 5827 5827 5826 5826 5825 5824 5824 5823 5822 5822 5821 5820 5819 5818 5816 5816 5815 5814 5813 5812 5811 5810 5809 5808 5808 5807 5807 5806 5807 5807 5808 5809 5809 5810 5810
5825 5825 5824 5824 5824 5824 5824 5824 5824 5823 5823 5822 5822 5821 5820 5820 5819 5818 5818 5817 5816 5815 5814 5813 5812 5811 5810 5809 5808 5806 5806 5805 5805 5804 5804 5804 5804 5804 5804 5805 5806 5806 5807
5821 5821 5821 5821 5821 5821 5821 5820 5820 5820 5819 5819 5818 5818 5817 5816 5815 5815 5814 5813 5812 5812 5810 5809 5808 5807 5806 5805 5804 5803 5802 5802 5802 5801 5801 5801 5801 5801 5801 5801 5802 5802 5802
5817 5817 5817 5817 5817 5817 5816 5816 5816 5816 5815 5815 5814 5814 5813 5812 5811 5811 5810 5810 5809 5808 5806 5806 5804 5803 5802 5802 5800 5800 5799 5798 5798 5798 5797 5797 5797 5797 5797 5797 5798 5798 5798
5812 5812 5812 5812 5812 5812 5812 5812 5811 5811 5811 5810 5810 5809 5808 5808 5807 5807 5806 5805 5805 5804 5803 5802 5800 5799 5798 5798 5797 5796 5795 5794 5794 5794 5794 5793 5793 5793 5793 5793 5793 5793 5793
5807 5807 5807 5807 5807 5807 5807 5806 5806 5806 5805 5805 5804 5804 5803 5802 5802 5802 5801 5801 5800 5799 5798 5797 5796 5795 5794 5793 5792 5791 5791 5790 5790 5789 5789 5789 5788 5788 5788 5788 5788 5788 5788
5801 5801 5801 5801 5801 5801 5801 5801 5800 5800 5799 5799 5798 5798 5797 5797 5796 5796 5795 5795 5794 5793 5793 5792 5791 5790 5789 5788 5788 5787 5786 5785 5785 5785 5784 5784 5783 5783 5783 5783 5783 5783 5782
5795 5795 5795 5795 5795 5794 5794 5794 5794 5793 5793 5792 5792 5791 5791 5790 5790 5789 5789 5789 5788 5787 5787 5786 5785 5784 5784 5783 5782 5781 5781 5780 5780 5779 5779 5778 5778 5777 5777 5777 5777 5776 5776
5788 5788 5788 5788 5788 5788 5787 5787 5787 5786 5786 5785 5785 5784 5784 5783 5783 5782 5782 5781 5781 5781 5780 5780 5779 5778 5778 5777 5776 5775 5775 5774 5774 5774 5773 5772 5772 5771 5771 5770 5770 5770 5770
5780 5780 5780 5780 5780 5780 5780 5779 5779 5778 5778 5777 5777 5776 5776 5775 5775 5774 5774 5774 5773 5773 5773 5772 5772 5771 5771 5770 5770 5769 5768 5768 5767 5767 5767 5766 5766 5765 5764 5764 5764 5763 5763
5772 5772 5772 5772 5772 5771 5771 5771 5770 5770 5769 5769 5768 5768 5767 5767 5766 5766 5765 5765 5765 5765 5764 5764 5764 5764 5763 5763 5762 5762 5761 5761 5760 5760 5759 5759 5758 5758 5757 5757 5756 5756 5755
5763 5763 5763 5763 5763 5762 5762 5761 5761 5760 5760 5760 5760 5759 5759 5758 5758 5757 5757 5756 5756 5756 5756 5756 5755 5755 5755 5754 5754 5754 5753 5753 5752 5752 5751 5751 5751 5750 5750 5749 5749 5748 5748
5754 5754 5754 5753 5753 5753 5752 5752 5751 5751 5751 5751 5750 5750 5749 5748 5748 5747 5746 5746 5746 5746 5746 5746 5746 5746 5746 5745 5745 5745 5744 5744 5744 5743 5743 5743 5742 5741 5741 5741 5740 5740 5739